Location: Unspecified
(0.0000°N, 0.0000°E)
Time: 16:03:22
(UTC+02:00)

Meteor PRIRODA - Visible Passes

Search period start: 21 August 2014 00:00
Search period end: 31 August 2014 00:00
Orbit: 510 x 535 km, 97.3° (Epoch: 20 August)

Date Brightness Start Highest point End Pass type
(mag) Time Alt. Az. Time Alt. Az. Time Alt. Az.
21 Aug 7.0 05:52:41 10° E 05:53:32 11° ESE 05:54:22 10° ESE visible
21 Aug 5.0 07:24:26 10° NNW 07:27:27 22° W 07:30:29 10° SW visible
22 Aug 4.3 07:11:15 10° NNW 07:14:45 35° W 07:18:17 10° SW visible
23 Aug 3.7 06:58:18 10° N 07:02:03 58° W 07:05:51 10° SSW visible
24 Aug 3.7 06:45:32 10° NNE 06:49:21 85° E 06:53:13 10° S visible
25 Aug 4.5 06:32:56 10° NNE 06:36:39 51° E 06:40:24 10° S visible
26 Aug 5.5 06:20:31 10° NE 06:23:57 32° ESE 06:27:24 10° SSE visible
27 Aug 6.3 06:08:22 10° NE 06:11:15 20° ESE 06:14:09 10° SSE visible
28 Aug 6.8 05:56:41 10° ENE 05:58:33 13° ESE 06:00:25 10° SE visible
28 Aug 5.2 07:29:46 10° NNW 07:32:28 19° W 07:35:12 10° SW visible
29 Aug 4.6 07:16:25 10° NNW 07:19:45 29° W 07:23:07 10° SW visible
30 Aug 4.0 07:03:21 10° N 07:07:02 46° W 07:10:45 10° SSW visible
